Location: Bremen
(53.0793°N, 8.8017°E)
Time: 11:57:41
(UTC+02:00)

Transit 2A Rocket - Pass Details

Date: 22 June 2024
Orbit: 582 x 910 km, 66.7° (Epoch: 19 July)

Event Time Altitude Azimuth Distance (km) Brightness Sun altitude
Rises 03:17:25 0° 309° (NW) 3,397 8.5 -9.8°
Reaches altitude 10° 03:20:17 10° 323° (NW) 2,507 8.0 -9.6°
Maximum altitude 03:25:06 26° 18° (NNE) 1,707 7.9 -9.3°
Drops below altitude 10° 03:30:04 10° 73° (ENE) 2,598 8.5 -8.9°
Sets 03:33:05 0° 86° (E) 3,545 8.9 -8.7°
